Change the Weather History Date:

Wednesday, December 7, 2011

  Actual Average Record
Temperature  
Mean Temperature 55 °F -  
Max Temperature 57 °F 44 °F 61 °F (1998)
Min Temperature 53 °F 32 °F 18 °F (1989)
Degree Days  
Heating Degree Days 10    
Growing Degree Days 5 (Base 50)    
Moisture  
Dew Point 54 °F    
Average Humidity 100    
Maximum Humidity 100    
Minimum Humidity 94    
Precipitation  
Precipitation 0.89 in - - ()
Sea Level Pressure  
Sea Level Pressure 29.75 in    
Wind  
Wind Speed 6 mph (SW)    
Max Wind Speed 12 mph    
Max Gust Speed 22 mph    
Visibility 3 miles    
Events Fog , Rain    
Averages and records for this station are not official NWS values.
T = Trace of Precipitation, MM = Missing Value Source: NWS Daily Summary

Daily Weather History Graph

Daily Weather History Graph

Search for Another Location

Airport or City:

Trip Planner

Search our weather history database for the weather conditions in past years. The results will help you decide how hot, cold, wet, or windy it might be!

Date:

Astronomy

Dec. 07, 2011 Rise Set
Actual Time 6:53 AM EST 4:09 PM EST
Civil Twilight 6:21 AM EST 4:40 PM EST
Nautical Twilight 5:47 AM EST 5:15 PM EST
Astronomical Twilight 5:13 AM EST 5:49 PM EST
Moon 2:09 PM EST (12/7) 4:04 AM EST (12/7)
Length of Visible Light 10h 18m
Length of Day
9h 16m
Waxing Gibbous, 92% of the Moon is Illuminated
Dec 7
Waxing Gibbous
Dec 10
Full
Dec 17
Last Quarter
Dec 24
New
Jan 1
First Quarter

Hourly Weather History & Observations

Time (EST) Temp. Dew Point Humidity Pressure Visibility Wind Dir Wind Speed Gust Speed Precip Events Conditions
12:52 AM 54.0 °F 54.0 °F 100% 29.93 in 3.0 mi SW 9.2 mph - 0.00 in   Overcast
12:59 AM 53.6 °F 53.6 °F 100% 29.93 in 2.0 mi SW 10.4 mph - 0.00 in Rain Light Rain
1:19 AM 53.6 °F 53.6 °F 100% 29.92 in 1.8 mi SW 8.1 mph 17.3 mph 0.01 in Rain Light Rain
1:26 AM 53.6 °F 53.6 °F 100% 29.92 in 2.0 mi SW 8.1 mph - 0.01 in Rain Light Rain
1:40 AM 53.6 °F 53.6 °F 100% 29.92 in 1.5 mi Variable 5.8 mph 16.1 mph 0.01 in   Overcast
1:52 AM 54.0 °F 53.1 °F 97% 29.92 in 1.2 mi SW 10.4 mph 17.3 mph 0.02 in Rain Light Rain
2:08 AM 53.6 °F 53.6 °F 100% 29.92 in 2.5 mi WSW 9.2 mph 16.1 mph 0.00 in   Overcast
2:52 AM 54.0 °F 54.0 °F 100% 29.92 in 3.0 mi Variable 6.9 mph - 0.04 in Rain Light Rain
3:06 AM 53.6 °F 53.6 °F 100% 29.91 in 1.8 mi SW 9.2 mph - 0.00 in   Overcast
3:35 AM 53.6 °F 53.6 °F 100% 29.90 in 0.8 mi SW 5.8 mph - 0.00 in   Mist
3:52 AM 53.1 °F 53.1 °F 100% 29.90 in 0.8 mi SW 6.9 mph - 0.00 in   Mist
3:59 AM 53.6 °F 53.6 °F 100% 29.89 in 1.0 mi SW 5.8 mph - N/A   Mist
5:19 AM 53.6 °F 53.6 °F 100% 29.90 in 0.8 mi SW 5.8 mph - N/A   Mist
5:52 AM 53.1 °F 53.1 °F 100% 29.89 in 0.8 mi SW 5.8 mph - N/A   Mist
6:01 AM 53.6 °F 53.6 °F 100% 29.89 in 1.0 mi SW 5.8 mph - N/A   Mist
6:52 AM 54.0 °F 54.0 °F 100% 29.88 in 1.5 mi SW 6.9 mph - 0.02 in Rain Light Rain
7:18 AM 53.6 °F 53.6 °F 100% 29.88 in 2.0 mi SW 5.8 mph - 0.03 in Rain Light Rain
8:00 AM 53.6 °F 53.6 °F 100% 29.88 in 1.2 mi SW 4.6 mph - 0.02 in Rain Rain
8:52 AM 54.0 °F 54.0 °F 100% 29.87 in 1.0 mi SW 5.8 mph - 0.20 in Rain Rain
9:03 AM 53.6 °F 53.6 °F 100% 29.84 in 0.8 mi SSW 3.5 mph - 0.04 in Rain Rain
9:32 AM 55.4 °F 55.4 °F 100% 29.85 in 1.0 mi SSW 9.2 mph - 0.07 in Rain Light Rain
9:41 AM 53.6 °F 53.6 °F 100% 29.84 in 0.5 mi SSW 5.8 mph - 0.07 in Fog , Rain Light Rain
9:52 AM 54.0 °F 54.0 °F 100% 29.85 in 0.5 mi SW 6.9 mph - 0.07 in Fog , Rain Light Rain
10:52 AM 53.1 °F 53.1 °F 100% 29.84 in 0.2 mi SW 5.8 mph - 0.00 in Fog , Rain Light Rain
11:52 AM 53.1 °F 53.1 °F 100% 29.80 in 0.5 mi SW 5.8 mph - 0.03 in Fog , Rain Light Rain
12:52 PM 53.1 °F 53.1 °F 100% 29.77 in 0.5 mi SW 8.1 mph - 0.03 in Fog , Rain Light Rain
1:52 PM 54.0 °F 54.0 °F 100% 29.75 in 1.0 mi WSW 6.9 mph - 0.06 in Rain Rain
2:08 PM 53.6 °F 53.6 °F 100% 29.74 in 3.0 mi WSW 6.9 mph - 0.02 in Rain Light Rain
2:22 PM 55.4 °F 55.4 °F 100% 29.73 in 1.8 mi Variable 4.6 mph - 0.05 in Rain Light Rain
2:45 PM 53.6 °F 53.6 °F 100% 29.72 in 3.0 mi Calm Calm - 0.11 in Rain Light Rain
2:52 PM 54.0 °F 54.0 °F 100% 29.72 in 4.0 mi Calm Calm - 0.11 in Rain Light Rain
3:03 PM 53.6 °F 53.6 °F 100% 29.71 in 1.5 mi Calm Calm - 0.00 in   Overcast
3:13 PM 53.6 °F 53.6 °F 100% 29.71 in 0.5 mi Calm Calm - 0.00 in Fog Fog
3:20 PM 53.6 °F 53.6 °F 100% 29.71 in 0.2 mi Calm Calm - 0.00 in Fog Fog
3:44 PM 53.6 °F 53.6 °F 100% 29.70 in 0.5 mi SSE 3.5 mph - 0.01 in Fog , Rain Light Rain
3:52 PM 55.0 °F 55.0 °F 100% 29.70 in 1.0 mi South 3.5 mph - 0.04 in Rain Rain
4:05 PM 55.4 °F 53.6 °F 94% 29.69 in 2.0 mi West 4.6 mph - 0.07 in Rain Heavy Rain
4:19 PM 53.6 °F 53.6 °F 100% 29.68 in 4.0 mi Variable 4.6 mph - 0.08 in Rain Light Rain
4:52 PM 55.9 °F 55.9 °F 100% 29.68 in 4.0 mi WSW 8.1 mph - 0.11 in Rain Rain
5:04 PM 55.4 °F 55.4 °F 100% 29.68 in 4.0 mi Variable 3.5 mph - 0.01 in Rain Light Rain
5:52 PM 55.9 °F 55.9 °F 100% 29.66 in 10.0 mi SW 5.8 mph - 0.01 in   Overcast
6:07 PM 55.4 °F 55.4 °F 100% 29.65 in 5.0 mi SW 6.9 mph - 0.01 in Rain Light Rain
6:52 PM 55.0 °F 55.0 °F 100% 29.64 in 8.0 mi SW 9.2 mph - 0.01 in   Overcast
7:22 PM 55.4 °F 55.4 °F 100% 29.64 in 9.0 mi WSW 11.5 mph 21.9 mph N/A   Overcast
8:14 PM 53.6 °F 53.6 °F 100% 29.62 in 6.0 mi NW 5.8 mph - 0.01 in Rain Light Rain
8:30 PM 53.6 °F 53.6 °F 100% 29.61 in 4.0 mi Calm Calm - 0.04 in Rain Rain
8:42 PM 53.6 °F 53.6 °F 100% 29.59 in 8.0 mi Calm Calm - 0.04 in Rain Light Rain
8:52 PM 53.1 °F 53.1 °F 100% 29.59 in 8.0 mi Calm Calm - 0.04 in Rain Light Rain
9:52 PM 53.1 °F 52.0 °F 96% 29.55 in 10.0 mi Calm Calm - 0.00 in   Overcast
10:49 PM 53.6 °F 53.6 °F 100% 29.47 in 9.0 mi Calm Calm - N/A   Overcast
10:52 PM 55.0 °F 54.0 °F 96% 29.47 in 9.0 mi South 3.5 mph - N/A   Overcast
11:08 PM 55.4 °F 55.4 °F 100% 29.46 in 7.0 mi Calm Calm - N/A   Overcast
11:31 PM 57.2 °F 57.2 °F 100% 29.42 in 2.0 mi Variable 4.6 mph - 0.05 in Rain Light Rain
11:41 PM 57.2 °F 57.2 °F 100% 29.42 in 3.0 mi South 9.2 mph - 0.07 in Rain Rain
11:52 PM 57.9 °F 57.0 °F 97% 29.41 in 3.0 mi South 10.4 mph 21.9 mph 0.10 in Rain Rain